Content
SEND FEEDBACK

Daily
Averages
Monthly
Summary
United States of America

LA LUZ, NEW MEXICO


Home > North America > United States > New Mexico
Elevation: 4094 feet     Latitude: 32 51N     Longitude: 106 06W

WEATHER
 
SELECT A DAY
Number of Records: 249,487;   Date Range: 1/1/95 - 7/23/14
 
SHARE

PRINT THIS DATA

[ ← Previous Day ]
WEATHER ALMANAC - JANUARY 31, 2013
[ Next Day → ]
[ °C ]   °F
Weather ElementAverageHighLow
Temperature37.7 °F54.7 °F (3:58 pm)15.4 °F (6:58 am)
Dewpoint10.1 °F18.3 °F (10:58 am)-2.2 °F (6:58 am)
Humidity33.2 %46 % (6:58 am)22 % (3:58 pm)
Barometer30.22 in30.30 in (6:58 am)30.16 in (2:58 pm)
Wind Speed6.5 mph12.7 mph (2:58 pm)
Weather ElementAverage
Visibility10 mi
Wind DirectionSW (219.6 °)

Weather ElementTotal
Precipitation---
Heating Degree Days30 (Base 65)
Averaged from 23 records on January 31, 2013
WEATHER CONDITIONS BREAKOUT
WIND DIRECTION BREAKOUT
WEATHER BY HOUR - JANUARY 31, 2013
[ °C ]   °F
Local TimeTemperatureDewpointHumidityBarometerVisibilityWind DirectionWind SpeedGust SpeedPrecipitationEventsConditions
1:58 AM22.8 °F0.1 °F37 %30.22 in10.0 miSE (140°)4.6 mphClear
2:58 AM21.6 °F-0.8 °F38 %30.22 in10.0 miEast (80°)4.6 mphClear
3:58 AM22.6 °F0.7 °F39 %30.21 in10.0 miESE (110°)5.8 mphClear
4:58 AM22.3 °F0.9 °F39 %30.22 in10.0 miCalmClear
5:58 AM18.5 °F-0.9 °F43 %30.26 in10.0 miENE (60°)3.5 mphClear
6:58 AM15.4 °F-2.2 °F46 %30.30 in10.0 miNNW (330°)5.8 mphClear
7:58 AM22.3 °F4.5 °F46 %30.30 in10.0 miNNW (340°)9.2 mphClear
8:58 AM37.8 °F10.6 °F33 %30.27 in10.0 miNNW (330°)10.4 mphClear
9:58 AM46.9 °F15.6 °F29 %30.25 in10.0 miNorth (350°)10.4 mphClear
10:58 AM50.2 °F18.3 °F28 %30.23 in10.0 miNNW (330°)9.2 mphClear
11:58 AM51.8 °F17.2 °F26 %30.23 in10.0 miWNW (300°)10.4 mphClear
12:58 PM53.1 °F18.3 °F26 %30.20 in10.0 miWest (280°)11.5 mphPartly Cloudy
1:58 PM53.6 °F18.0 °F25 %30.18 in10.0 miWNW (300°)10.4 mphClear
2:58 PM54.3 °F17.4 °F23 %30.16 in10.0 miNW (310°)12.7 mphClear
3:58 PM54.7 °F16.7 °F22 %30.16 in10.0 miWNW (300°)9.2 mphClear
4:58 PM53.2 °F16.2 °F23 %30.17 in10.0 miWest (280°)5.8 mphClear
5:58 PM47.3 °F15.1 °F28 %30.19 in10.0 miNW (310°)3.5 mphClear
6:58 PM40.6 °F13.1 °F33 %30.22 in10.0 miNNW (330°)4.6 mphClear
7:58 PM35.2 °F9.7 °F35 %30.23 in10.0 miENE (60°)4.6 mphClear
8:58 PM37.4 °F11.5 °F34 %30.21 in10.0 miCalmClear
9:58 PM37.2 °F10.2 °F33 %30.19 in10.0 miWSW (250°)2.3 mphClear
10:58 PM34.9 °F11.5 °F38 %30.19 in10.0 miESE (120°)5.8 mphClear
11:58 PM33.8 °F11.5 °F40 %30.19 in10.0 miSE (140°)5.8 mphClear
Hourly data recorded from KHMN, located miles away from La Luz, New Mexico







STORIES FROM OUR PARTNERS